Regional Weather Roundup
Issued by NWS

Home | Current Version | Previous Version | Graphics & Text | Print | Product List | Glossary On
Versions: 1 2 3 4 5 6 7 8 9 10 11 12 13 14 15 16 17 18 19 20 21 22 23 24 25 26 27 28 29 30 31 32 33 34 35 36 37 38 39 40 41 42 43 44 45 46 47 48 49 50
000
ASUS43 KMPX 270110
RWRMN
WEATHER ROUNDUP FOR MINNESOTA
NATIONAL WEATHER SERVICE TWIN CITIES/CHANHASSEN MN
800 PM CDT SUN APR 26 2015


NOTE: "FAIR" INDICATES FEW OR NO CLOUDS BELOW 12,000 FEET WITH NO
SIGNIFICANT WEATHER AND/OR OBSTRUCTIONS TO VISIBILITY. N/A MEANS
CURRENT SKY AND/OR WEATHER CONDITIONS ARE NOT AVAILABLE.

MNZ060>063-068>070-270200-
   Twin Cities Metro

CITY           SKY/WX    TMP DP  RH WIND       PRES   REMARKS
TWIN CITIES    PTCLDY    59  21  23 N12G21    30.09R
ST PAUL        CLEAR     59  22  24 N9        30.09R
CRYSTAL        CLEAR     59  22  24 NE6       30.09R
BLAINE         CLEAR     57  23  26 NE7       30.10R
LAKEVILLE      CLEAR     55  27  33 NE6       30.08S
EDEN PRAIRIE   CLEAR     59  24  26 NE8       30.07S
SOUTH ST PAUL  CLEAR     60  22  22 N7        30.09R
LAKE ELMO      FAIR      59  27  29 N6        30.09S
$$
MNZ001>005-007-008-013>017-022>024-027-028-270200-
   Northwest Minnesota

CITY           SKY/WX    TMP DP  RH WIND       PRES   REMARKS
BEMIDJI        CLEAR     58  23  26 N5        30.12S
HALLOCK        CLEAR     63  23  22 SW3       30.11R
ROSEAU         CLEAR     57  28  33 E9        30.14R
WARROAD        CLEAR     50  27  40 NE8       30.15S
THIEF RVR FALL CLEAR     64  23  20 NE3       30.13R
CROOKSTON      CLEAR     63  27  25 CALM      30.12R
FOSSTON        CLEAR     61  25  25 NE7       30.13R
DETROIT LAKES  CLEAR     61  21  21 CALM      30.13R
MOORHEAD       CLEAR     64  21  19 CALM      30.11S
PARK RAPIDS    PTCLDY    59  17  19 E5        30.12R
MAHNOMEN       FAIR      60  23  24 NE3       30.11R
$$
MNZ006-009>011-018-025>026-270200-
   North Central Minnesota

CITY           SKY/WX    TMP DP  RH WIND       PRES   REMARKS
BAUDETTE       CLEAR     57  22  25 E8        30.14S
FLAG ISLAND    CLEAR     55  23  28 CALM      30.14R
INTL FALLS     CLEAR     55  10  16 CALM      30.15S
WASKISH        CLEAR     54  34  47 CALM      30.14R
BIG FORK       CLEAR     57  16  19 NE5       30.14R
LONGVILLE      PTCLDY    57  18  21 CALM      30.13R
GRAND RAPIDS   CLEAR     59  12  15 CALM      30.13R
CRANE LAKE     CLEAR     50  25  37 CALM      30.16S
ORR            CLEAR     54  16  22 CALM      30.12S
COOK           CLEAR     55  16  21 CALM      30.15R
WALKER         FAIR      56  17  21 CALM      30.13R
$$
MNZ012-019>021-037-270200-
   Northeast Minnesota

CITY           SKY/WX    TMP DP  RH WIND       PRES   REMARKS
DULUTH         CLEAR     47  19  33 SE3       30.14S
ELY            CLEAR     54  23  30 CALM      30.14R
HIBBING        CLEAR     56  14  19 NE5       30.13R
EVELETH        CLEAR     57  19  23 N3        30.14R
DULUTH HARBOR  CLEAR     39  34  81 CALM      30.17R
TWO HARBORS    CLEAR     46  30  53 E3        30.14R
SILVER BAY     CLEAR     43  27  52 NE3       30.14R
GRAND MARAIS     N/A     38  29  70 CALM      30.17S
G MARAIS ARPRT CLEAR     39  21  48 CALM      30.15S
$$
MNZ029>031-032-039>041-046>048-054>057-064-270200-
   West Central Minnesota

CITY           SKY/WX    TMP DP  RH WIND       PRES   REMARKS
FERGUS FALLS   CLEAR     61  12  15 E3        30.12R
WHEATON        CLEAR     55  28  35 E6        30.12R
MORRIS         CLEAR     59  23  25 E6        30.10R
ALEXANDRIA     CLEAR     56  22  26 NE7       30.12R
ELBOW LAKE     FAIR      59  24  25 E3        30.11R
WADENA         PTCLDY    57  23  26 NE3       30.11S
GLENWOOD       CLEAR     55  21  26 E7        30.12R
APPLETON       CLEAR     59  21  23 E7        30.09S
BENSON         CLEAR     57  14  18 E3        30.10S
ORTONVILLE     CLEAR     59  27  29 E5        30.10R
MADISON        CLEAR     59  19  21 NE8       30.09R
WILLMAR        FAIR      57  21  24 E8        30.11S
$$
MNZ033>034-036-042>043-049>051-058-059-270200-
   Central Minnesota

CITY           SKY/WX    TMP DP  RH WIND       PRES   REMARKS
ST CLOUD       CLEAR     58  21  24 E3        30.10R
SAUK CENTRE    FAIR      56  19  23 E7        30.12R
PAYNESVILLE    PTCLDY    56  22  26 NW5       30.11R
AITKIN         PTCLDY    57   5  12 CALM      30.10S
PINE RIVER     PTCLDY    57  27  30 N7        30.15R
BRAINERD       PTCLDY    58  16  19 CALM      30.12R
STAPLES        PTCLDY    55  16  21 CALM      30.12R
LONG PRAIRIE   FAIR      55  21  26 E3        30.13R
LITTLE FALLS   PTCLDY    55  16  21 E3        30.12R
LITCHFIELD     CLEAR     59  25  27 NE6       30.11R
BUFFALO        CLEAR     56  25  29 NE3       30.11R
MAPLE LAKE     CLEAR     58  25  29 NE3       30.11R
$$
MNZ037-044-045-052-053-270200-
   East Central Minnesota

CITY           SKY/WX    TMP DP  RH WIND       PRES   REMARKS
PRINCETON      CLEAR     59  19  21 NE8       30.12R
MORA           CLEAR     54  16  22 CALM      30.14R
CAMBRIDGE      CLEAR     59  34  38 NE6       30.10R
RUSH CITY      PTCLDY    54  20  26 NE6       30.12R
MOOSE LAKE     CLEAR     54  21  28 CALM      30.11S
HINCKLEY       FAIR      54  18  24 NE3       30.12S
CLOQUET        CLEAR     48  16  27 E3        30.14S
MCGREGOR       CLEAR     55  23  28 CALM      30.12R
$$
MNZ071>073-080-081-089-090-097-098-270200-
   Southwest Minnesota

CITY           SKY/WX    TMP DP  RH WIND       PRES   REMARKS
MONTEVIDEO     CLEAR     59  19  21 E8        30.10R
GRANITE FALLS  CLEAR     59  19  20 NE8       30.10R
CANBY          CLEAR     58  26  29 NE7       30.09R
MARSHALL       CLEAR     61  23  23 NE9       30.08R
REDWOOD FALLS  CLEAR     61  15  16 NE5       30.08R
OLIVIA         CLEAR     57  18  21 NE8       30.08S
PIPESTONE      CLEAR     63  23  22 NE8       30.06R
WINDOM         CLEAR     61  21  21 NE7       30.06R
WORTHINGTON    CLEAR     61  25  25 NE10      30.06R
JACKSON        CLEAR     59  21  23 NE9       30.07R
TRACY          CLEAR     60  22  22 NE10      30.08R
SLAYTON        CLEAR     60  21  22 CALM      30.07R
$$
MNZ065>067-074>077-082>085-091>093-270200-
   South Central Minnesota

CITY           SKY/WX    TMP DP  RH WIND       PRES   REMARKS
MANKATO        PTCLDY    57  23  26 NE9       30.08R
NEW ULM        CLEAR     61  14  16 NE8       30.08R
ST JAMES       CLEAR     63  10  13 NE7       30.07R
FAIRMONT       CLEAR     61  25  25 NE10      30.05S
GLENCOE        PTCLDY    58  26  28 NE3       30.09R
FARIBAULT      CLEAR     57  25  28 N3        30.09R
OWATONNA       CLEAR     55  21  26 N5        30.08R
WASECA         CLEAR     57  27  30 N9        30.09R
ALBERT LEA     CLEAR     55  27  33 NE7       30.07R
$$
MNZ078>079-086>088-094>096-270200-
   Southeast Minnesota

CITY           SKY/WX    TMP DP  RH WIND       PRES   REMARKS
ROCHESTER      CLEAR     52  26  36 NE7       30.08R
RED WING       CLEAR     59  19  21 NE6       30.07R
STANTON        CLEAR     58  23  25 NE7       30.07R
DODGE CENTER   CLEAR     55  27  33 NE7       30.08R
WINONA         CLEAR     59  28  31 CALM      30.06S HAZE
AUSTIN         CLEAR     54  28  37 NE3       30.07R
PRESTON        CLEAR     52  25  34 N5        30.07R
$$
ABBREVIATIONS USED IN REMARKS
   TC - TEMPERATURES IN CELSIUS
  WCI - WIND CHILL INDEX
   HX - HEAT INDEX
  VSB - VISIBILITY
$$



USA.gov is the U.S. government's official web portal to all federal, state and local government web resources and services.